Flag for Morocco Weather past 2 weeks in Tangier, Morocco

Now
79 °F

Sunny.


Feels Like: 81 °F
Forecast: 71 / 82 °F
Wind: 20 mph from East

Location: Tanger Aerodrome

Current Time: Oct 2, 2014 at 6:34:30 PM

Latest Report: Oct 2, 2014 at 6:00 PM


Visibility: 10 mi

Pressure: 30.01 "Hg

Humidity: 61%

Dew point: 64 °F

Location of TangierLocation

Historic Weather in Tangier — Graph

°F

Tangier temperature yesterday

Maximum temperature yesterday: 84 °F (at 12:30 PM)
Minimum temperature yesterday: 73 °F (at 12:00 AM)
Average temperature yesterday: 76 °F

Past Weeks' High & Low Weather Summary

 TemperatureHumidityPressure
High84 °F (Sep 21, 12:30 PM)94% (Sep 25, 4:30 AM)30.15 "Hg (Sep 25, 4:30 AM)
Low61 °F (Sep 26, 7:30 AM)37% (Sep 21, 12:30 PM)29.83 "Hg (Sep 17, 5:00 PM)
Average73 °F72%30.02 "Hg
* Reported Sep 17 5:00 PM — Oct 2 5:30 PM, Tangier, Weather by CustomWeather, © 2014

Note: Actual official high and low records may vary slightly from our data, if they occured in-between our weather recording intervals... More about our weather records

Advertising

Tangier weather history for previous 24 hours

 ConditionsComfort  
Time TempWeatherWind HumidityBarometerVisibility
5:30 PM
Oct 2
81 °FSunny.17 mph58%30.04 "Hg10 mi
5:00 PM81 °FSunny.20 mph58%30.04 "Hg10 mi
4:30 PM82 °FSunny.20 mph55%30.04 "Hg10 mi
4:00 PM82 °FSunny.22 mph55%30.04 "Hg10 mi
3:30 PM84 °FSunny.21 mph51%30.04 "Hg10 mi
3:00 PM84 °FPassing clouds.21 mph51%30.04 "HgN/A
2:30 PM84 °FPassing clouds.20 mph51%30.04 "HgN/A
2:00 PM84 °FPassing clouds.20 mph51%30.04 "HgN/A
1:30 PM82 °FPassing clouds.22 mph55%30.07 "HgN/A
1:00 PM82 °FPassing clouds.24 mph55%30.07 "HgN/A
12:30 PM81 °FPassing clouds.25 mph58%30.07 "HgN/A
12:00 PM81 °FPassing clouds.29 mph58%30.07 "HgN/A
11:30 AM81 °FPassing clouds.26 mph58%30.07 "HgN/A
11:00 AM79 °FPassing clouds.21 mph61%30.09 "HgN/A
10:30 AM81 °FPassing clouds.20 mph62%30.07 "HgN/A
10:00 AM79 °FPassing clouds.20 mph65%30.07 "HgN/A
9:30 AM77 °FPassing clouds.18 mph69%30.07 "HgN/A
9:00 AM75 °FScattered clouds.16 mph74%30.07 "Hg5 mi
8:30 AM75 °FScattered clouds.21 mph69%30.04 "Hg5 mi
8:00 AM73 °FScattered clouds.18 mph78%30.04 "Hg5 mi
7:30 AM73 °FScattered clouds.18 mph74%30.01 "Hg5 mi
7:00 AM73 °FScattered clouds.18 mph74%30.01 "Hg5 mi
6:30 AM75 °FScattered clouds.21 mph74%30.01 "Hg5 mi
6:00 AM73 °FPassing clouds.20 mph78%30.01 "Hg5 mi
5:30 AM75 °FPassing clouds.22 mph69%30.01 "Hg5 mi
4:30 AM75 °FPassing clouds.20 mph69%30.01 "Hg5 mi
4:00 AM75 °FPassing clouds.23 mph69%30.01 "Hg5 mi
3:30 AM75 °FPassing clouds.22 mph69%30.01 "Hg5 mi
3:00 AM75 °FPassing clouds.23 mph69%30.01 "Hg5 mi
2:30 AM75 °FPassing clouds.22 mph69%30.04 "Hg5 mi
2:00 AM75 °FPassing clouds.25 mph65%30.04 "Hg5 mi
1:30 AM75 °FPassing clouds.20 mph65%30.04 "Hg5 mi
1:00 AM75 °FPassing clouds.20 mph65%30.04 "Hg5 mi
12:30 AM75 °FPassing clouds.20 mph65%30.04 "Hg5 mi
12:00 AM75 °FPassing clouds.18 mph65%30.04 "Hg5 mi
11:30 PM
Oct 1
75 °FPassing clouds.20 mph65%30.04 "Hg5 mi
11:00 PM75 °FPassing clouds.20 mph65%30.04 "Hg5 mi
10:30 PM75 °FPassing clouds.26 mph65%30.04 "Hg5 mi
10:00 PM77 °FPassing clouds.25 mph57%30.04 "Hg5 mi
9:30 PM75 °FPassing clouds.21 mph65%30.04 "Hg5 mi
9:00 PM75 °FPassing clouds.22 mph65%30.01 "Hg5 mi
8:30 PM75 °FPassing clouds.23 mph65%30.01 "Hg5 mi
8:00 PM77 °FPassing clouds.25 mph61%30.01 "Hg5 mi
7:30 PM77 °FPassing clouds.23 mph65%29.98 "Hg5 mi
7:00 PM77 °FPassing clouds.29 mph65%29.98 "Hg5 mi
6:30 PM77 °FPassing clouds.31 mph65%29.98 "Hg5 mi
6:00 PM79 °FPartly sunny.24 mph61%29.98 "Hg5 mi
Weather by CustomWeather, © 2014

See weather overviewHow to use our weather pages